This demonstration page uses our WeatherBlox Daily Observations layout. Learn more.

Left ArrowRight Arrow

39.51506, -84.39828

Hourly Observations for September 29, 2020

Temp ( °F °C ) Dew Point ( °F °C ) Humidity (%) Winds ( mph kmh ) Pressure ( in mb ) Visibility ( mi km ) Precip ( " mm )
12:15 am 00:15 Clear 52 11 N/A N/A SW 5 7 29.93 1013 10 16.0934 0 0
12:35 am 00:35 Mostly Cloudy 54 12 N/A N/A SW 6 9 29.92 1013 10 16.0934 0 0
12:55 am 00:55 Clear 52 11 N/A N/A SW 5 7 29.93 1013 10 16.0934 0 0
1:15 am 01:15 Mostly Cloudy 52 11 N/A N/A SW 3 6 29.93 1013 10 16.0934 0 0
1:35 am 01:35 Clear 52 11 N/A N/A SW 5 7 29.93 1013 7 11.26538 0 0
1:55 am 01:55 Clear 52 11 N/A N/A SW 5 7 29.93 1013 7 11.26538 0 0
2:15 am 02:15 Mostly Cloudy 52 11 N/A N/A Calm 29.93 1013 7 11.26538 0 0
2:35 am 02:35 Clear with Mist and Fog 52 11 N/A N/A WSW 3 6 29.93 1013 3.5 5.63269 0 0
2:55 am 02:55 Mostly Cloudy with Mist and Fog 52 11 N/A N/A Calm 29.93 1013 1.5 2.41401 0 0
3:15 am 03:15 Mostly Cloudy with Mist and Fog 50 10 N/A N/A Calm 29.93 1014 1.25 2.011675 0 0
3:35 am 03:35 Mostly Cloudy with Fog 48 9 N/A N/A WSW 3 6 29.93 1014 0.25 0.402335 0 0
3:55 am 03:55 Mostly Cloudy with Fog 48 9 N/A N/A Calm 29.92 1013 0.25 0.402335 0 0
4:15 am 04:15 Mostly Cloudy with Fog 46 8 N/A N/A Calm 29.92 1013 0.25 0.402335 0 0
4:35 am 04:35 Mostly Cloudy with Fog 48 9 N/A N/A Calm 29.92 1013 0.25 0.402335 0 0
4:55 am 04:55 Mostly Cloudy with Fog 46 8 N/A N/A Calm 29.92 1013 0.5 0.80467 0 0
5:15 am 05:15 Mostly Cloudy with Fog 46 8 N/A N/A Calm 29.93 1014 0.25 0.402335 0 0
5:35 am 05:35 Mostly Cloudy with Fog 45 7 N/A N/A Calm 29.94 1014 0.25 0.402335 0 0
5:55 am 05:55 Mostly Cloudy with Fog 46 8 N/A N/A Calm 29.93 1014 0.5 0.80467 0 0
6:15 am 06:15 Mostly Cloudy with Fog 45 7 N/A N/A Calm 29.94 1014 0.25 0.402335 0 0
6:35 am 06:35 Mostly Cloudy with Fog 45 7 N/A N/A Calm 29.95 1014 0.25 0.402335 0 0
6:55 am 06:55 Mostly Cloudy with Fog 45 7 N/A N/A Calm 29.95 1014 0.25 0.402335 0 0
7:15 am 07:15 Mostly Cloudy with Fog 43 6 N/A N/A Calm 29.96 1015 0.25 0.402335 0 0
7:35 am 07:35 Cloudy with Fog 45 7 N/A N/A Calm 29.96 1014 N/A 0 0
7:55 am 07:55 Cloudy with Fog 45 7 N/A N/A Calm 29.97 1015 N/A 0 0
8:15 am 08:15 Mostly Cloudy with Mist and Fog 45 7 N/A N/A Calm 29.97 1015 0.75 1.207005 0 0
8:35 am 08:35 Sunny 48 9 N/A N/A Calm 29.97 1015 7 11.26538 0 0
8:55 am 08:55 Sunny 48 9 N/A N/A Calm 29.97 1015 10 16.0934 0 0
9:15 am 09:15 Sunny 50 10 N/A N/A Calm 29.96 1015 10 16.0934 0 0
9:35 am 09:35 Sunny 52 11 N/A N/A Calm 29.97 1015 10 16.0934 0 0
9:55 am 09:55 Sunny 53 11.6 52 11 96 96 Calm 29.96 1015 10 16.0934 0 0
10:15 am 10:15 Sunny 54 12.3 52 11.1 92 92 Calm 29.96 1015 10 16.0934 0 0
10:35 am 10:35 Sunny 55 12.8 53 11.4 91 91 Calm 29.95 1014 10 16.0934 0 0
10:55 am 10:55 Partly Cloudy 56 13.1 52 11.3 89 89 Calm 29.96 1015 10 16.0934 0 0
11:15 am 11:15 Sunny 57 14 52 11.2 83 83 SE 3 6 29.96 1015 10 16.0934 0 0
11:35 am 11:35 Partly Cloudy 59 15 51 10.7 76 76 SW 3 6 29.95 1014 10 16.0934 0 0
11:55 am 11:55 Mostly Cloudy 59 14.9 52 11.1 78 78 Calm 29.95 1014 10 16.0934 0 0
12:15 pm 12:15 Partly Cloudy 60 15.4 51 10.8 74 74 SSW 5 7 29.94 1014 10 16.0934 0 0
12:35 pm 12:35 Partly Cloudy 60 15.4 50 10 70 70 SSW 7 11 29.93 1013 10 16.0934 0 0
12:55 pm 12:55 Partly Cloudy 60 15.7 50 10.2 70 70 WSW 5 7 29.91 1013 10 16.0934 0 0
1:15 pm 13:15 Partly Cloudy 61 16 48 8.8 63 63 WSW 8 13 29.92 1013 10 16.0934 0 0
1:35 pm 13:35 Sunny 60 15.8 49 9.3 66 66 WSW 6 9 29.91 1013 10 16.0934 0 0
1:55 pm 13:55 Partly Cloudy 60 15.8 50 10.2 70 70 S 5 7 29.91 1013 10 16.0934 0 0
2:15 pm 14:15 Partly Cloudy 60 15.7 49 9.6 67 67 WSW 6 9 29.89 1012 10 16.0934 0 0
2:35 pm 14:35 Sunny 60 15.7 48 8.9 64 64 WSW 6 9 29.89 1012 10 16.0934 0 0
2:55 pm 14:55 Sunny 60 15.8 48 8.9 64 64 WSW 5 7 29.86 1011 10 16.0934 0 0
3:15 pm 15:15 Sunny 61 16.3 49 9.2 63 63 WSW 7 11 29.87 1012 10 16.0934 0 0
3:35 pm 15:35 Sunny 62 16.4 48 8.7 61 61 SW 6 9 29.87 1012 10 16.0934 0 0
3:55 pm 15:55 Sunny 62 16.7 47 8.1 57 57 WSW 6 9 29.85 1011 10 16.0934 0 0
4:15 pm 16:15 Sunny 63 17.3 47 8.3 56 56 WSW 8 13 29.83 1010 10 16.0934 0 0
4:35 pm 16:35 Partly Cloudy 64 17.6 48 8.9 57 57 WSW 5 7 29.83 1010 10 16.0934 0 0
4:55 pm 16:55 Partly Cloudy 64 17.9 47 8.6 55 55 SSW 5 7 29.82 1010 10 16.0934 0 0
5:15 pm 17:15 Partly Cloudy 63 17.4 47 8.2 55 55 SW 6 9 29.82 1010 10 16.0934 0 0
5:35 pm 17:35 Sunny 64 17.8 46 8 53 53 SW 5 7 29.81 1009 10 16.0934 0 0
5:55 pm 17:55 Partly Cloudy 63 17.2 46 7.6 53 53 WSW 7 11 29.82 1010 10 16.0934 0 0
6:15 pm 18:15 Partly Cloudy 63 17.4 47 8.3 55 55 SSW 5 7 29.82 1010 10 16.0934 0 0
6:35 pm 18:35 Mostly Cloudy 61 16.3 47 8.4 60 60 SSW 6 9 29.81 1010 10 16.0934 0 0
6:55 pm 18:55 Cloudy 61 15.9 48 9 64 64 W 16 26 29.83 1010 10 16.0934 0 0
7:15 pm 19:15 Cloudy with Heavy Rain 54 12.1 50 10 87 87 WNW 14 22 29.86 1011 4 6.43736 0.31 7.874
7:35 pm 19:35 Cloudy with Light Rain 53 11.8 50 9.9 88 88 NNW 7 11 29.85 1011 5 8.0467 0.34 8.636
7:55 pm 19:55 Partly Cloudy 52 11.2 50 9.9 92 92 SSW 5 7 29.86 1011 10 16.0934 0.34 8.636
8:15 pm 20:15 Cloudy 52 11.3 51 10.5 95 95 Calm 29.87 1011 10 16.0934 0 0
8:35 pm 20:35 Cloudy 52 11.1 51 10.6 97 97 Calm 29.88 1012 10 16.0934 0 0
8:55 pm 20:55 Cloudy 52 11.2 52 10.9 98 98 Calm 29.87 1011 10 16.0934 0 0
9:15 pm 21:15 Cloudy 52 11.3 52 11.1 99 99 Calm 29.88 1012 10 16.0934 0 0
9:35 pm 21:35 Cloudy 53 11.7 52 11.2 97 97 S 3 6 29.87 1012 10 16.0934 0 0

Powered by AerisWeather